User: anonymous   Login
Location: Sewell
(39.7660°N, 75.1450°W)
Time: 09:29:27
(UTC-05:00)
Language:

ISS - Orbit

View from above orbital plane
View from above orbital plane
View from above satellite
View from above satellite

Ground track
Ground track

The orbit data is extracted from the following two-line orbital elements,

1 25544U 98067A   16340.73972054  .00016717  00000-0  10270-3 0  9132
2 25544  51.6428 282.6156 0006429 296.9742  63.0754 15.53840281 31666
Epoch (UTC): 05 December 2016 17:45:11
Eccentricity: 0.0006429
inclination: 51.6428°
perigee height: 401 km
apogee height: 410 km
right ascension of ascending node: 282.6156°
argument of perigee: 296.9742°
revolutions per day: 15.53840281
mean anomaly at epoch: 63.0754°
orbit number at epoch: 3166

The dashed part of the orbit path shows where the satellite is in the earth's shadow,  

DLR